Tracking 34138 objects as of 15-May-2026
HD Live streaming from Space Station
objects crossing your sky now

STARLINK-37018

Track STARLINK-37018 now!
10-day predictions
STARLINK-37018 is classified as:


NORAD ID: 68103
Int'l Code: 2026-044C
Perigee: 471.5 km
Apogee: 473.9 km
Inclination: 97.3 °
Period: 93.9 minutes
Semi major axis: 6843 km
RCS: Unknown
Launch date: March 8, 2026
Source: United States (US)
Launch site: AIR FORCE WESTERN TEST RANGE (AFWTR)
Your satellite tracking list
Your tracking list is empty




NASA's NSSDC Master Catalog

Two Line Element Set (TLE):
1 68103U 26044C   26135.27502249  .00006191  00000-0  19399-3 0  9993
2 68103  97.2850  95.9839 0001757  88.5374 271.6070 15.33435252 11782
Source of the keplerian elements: AFSPC